Alamogordo, NM

12:33 AM MDT on September 15, 2019 (GMT -0600)
Alamogordo-White Sands Regional

Weather History for KALM - August, 2019

Change the Weather History Date:

Friday, August 23, 2019

  Actual Average Record
Temperature  
Mean Temperature 83 °F -  
Max Temperature 95 °F 89 °F 100 °F (2011)
Min Temperature 71 °F 63 °F 53 °F (1953)
Cooling Degree Days 18    
Growing Degree Days 33 (Base 50)    
Moisture  
Dew Point 51 °F    
Average Humidity 35    
Maximum Humidity 53    
Minimum Humidity 18    
Precipitation  
Precipitation 0.00 in - - ()
Sea Level Pressure  
Sea Level Pressure 30.02 in    
Wind  
Wind Speed 11 mph ()    
Max Wind Speed 26 mph    
Max Gust Speed 37 mph    
Visibility 10.0 miles    
Events      
Averages and records for this station are not official NWS values.
T = Trace of Precipitation, MM = Missing Value Source: Averaged Metar Reports

Daily Weather History Graph

Daily Weather History Graph

Search for Another Location

Airport or City:

Astronomy

Aug. 23, 2019 Rise Set
Actual Time 6:32 AM MDT 7:40 PM MDT
Civil Twilight 6:06 AM MDT 8:05 PM MDT
Nautical Twilight 5:36 AM MDT 8:35 PM MDT
Astronomical Twilight 5:05 AM MDT 9:07 PM MDT
Moon No Moon Rise 1:48 PM MDT (8/23)
Length of Visible Light 13h 58m
Length of Day
13h 07m
Waning Gibbous, 49% of the Moon is Illuminated
Aug 23
Waning Gibbous
Aug 30
New
Sep 5
First Quarter
Sep 13
Full
Sep 21
Last Quarter

Hourly Weather History & Observations

Time (MDT) Temp. Heat Index Dew Point Humidity Pressure Visibility Wind Dir Wind Speed Gust Speed Precip Events Conditions
12:15 AM 78.8 °F - 53.6 °F 42% 29.99 in 10.0 mi South 15.0 mph 21.9 mph N/A   Clear
12:35 AM 80.6 °F 80.3 °F 53.6 °F 39% 30.00 in 10.0 mi South 21.9 mph 27.6 mph N/A   Clear
12:55 AM 80.6 °F 80.3 °F 53.6 °F 39% 30.00 in 10.0 mi South 15.0 mph 27.6 mph N/A   Clear
1:15 AM 80.6 °F 80.3 °F 53.6 °F 39% 30.02 in 10.0 mi South 15.0 mph 21.9 mph N/A   Clear
1:35 AM 80.6 °F 80.3 °F 53.6 °F 39% 30.01 in 10.0 mi South 15.0 mph 20.7 mph N/A   Clear
1:55 AM 80.6 °F 80.3 °F 53.6 °F 39% 30.01 in 10.0 mi South 13.8 mph - N/A   Clear
2:15 AM 78.8 °F - 53.6 °F 42% 30.01 in 10.0 mi South 12.7 mph - N/A   Clear
2:35 AM 77.0 °F - 53.6 °F 44% 30.01 in 10.0 mi South 12.7 mph - N/A   Clear
2:55 AM 77.0 °F - 53.6 °F 44% 30.01 in 10.0 mi South 12.7 mph - N/A   Clear
3:15 AM 75.2 °F - 53.6 °F 47% 30.01 in 10.0 mi South 10.4 mph - N/A   Clear
3:35 AM 75.2 °F - 53.6 °F 47% 30.02 in 10.0 mi South 9.2 mph - N/A   Clear
3:55 AM 75.2 °F - 53.6 °F 47% 30.03 in 10.0 mi South 9.2 mph - N/A   Clear
4:15 AM 73.4 °F - 53.6 °F 50% 30.03 in 10.0 mi South 10.4 mph - N/A   Clear
4:35 AM 73.4 °F - 53.6 °F 50% 30.03 in 10.0 mi South 8.1 mph - N/A   Clear
4:55 AM 75.2 °F - 53.6 °F 47% 30.03 in 10.0 mi SSW 9.2 mph - N/A   Clear
5:15 AM 75.2 °F - 53.6 °F 47% 30.04 in 10.0 mi South 9.2 mph - N/A   Clear
5:35 AM 75.2 °F - 53.6 °F 47% 30.04 in 10.0 mi South 8.1 mph - N/A   Clear
5:55 AM 73.4 °F - 53.6 °F 50% 30.04 in 10.0 mi SSE 8.1 mph - N/A   Clear
6:15 AM 73.4 °F - 53.6 °F 50% 30.04 in 10.0 mi South 9.2 mph - N/A   Clear
6:35 AM 73.4 °F - 53.6 °F 50% 30.05 in 10.0 mi SSW 6.9 mph - N/A   Clear
6:55 AM 71.6 °F - 53.6 °F 53% 30.05 in 10.0 mi South 6.9 mph - N/A   Clear
7:15 AM 71.6 °F - 53.6 °F 53% 30.05 in 10.0 mi South 5.8 mph - N/A   Clear
7:35 AM 73.4 °F - 55.4 °F 53% 30.05 in 10.0 mi SSW 4.6 mph - N/A   Clear
7:55 AM 77.0 °F - 55.4 °F 47% 30.06 in 10.0 mi SSE 3.5 mph - N/A   Clear
8:15 AM 78.8 °F - 55.4 °F 44% 30.06 in 10.0 mi SSW 8.1 mph - N/A   Clear
8:35 AM 80.6 °F 80.5 °F 55.4 °F 42% 30.06 in 10.0 mi South 12.7 mph - N/A   Clear
8:55 AM 80.6 °F 80.5 °F 55.4 °F 42% 30.06 in 10.0 mi South 15.0 mph 19.6 mph N/A   Clear
9:15 AM 80.6 °F 80.5 °F 55.4 °F 42% 30.07 in 10.0 mi South 16.1 mph 20.7 mph N/A   Clear
9:35 AM 82.4 °F 81.7 °F 55.4 °F 39% 30.07 in 10.0 mi SSW 16.1 mph 20.7 mph N/A   Clear
9:55 AM 82.4 °F 81.7 °F 55.4 °F 39% 30.07 in 10.0 mi South 12.7 mph 20.7 mph N/A   Clear
10:15 AM 84.2 °F 83.0 °F 55.4 °F 37% 30.07 in 10.0 mi South 13.8 mph 19.6 mph N/A   Clear
10:35 AM 84.2 °F 83.0 °F 55.4 °F 37% 30.08 in 10.0 mi South 11.5 mph 17.3 mph N/A   Clear
10:55 AM 84.2 °F 83.0 °F 55.4 °F 37% 30.07 in 10.0 mi South 8.1 mph 18.4 mph N/A   Clear
11:15 AM 84.2 °F 83.0 °F 55.4 °F 37% 30.07 in 10.0 mi SSW 10.4 mph 16.1 mph N/A   Clear
11:35 AM 86.0 °F 84.5 °F 55.4 °F 35% 30.06 in 10.0 mi SW 8.1 mph - N/A   Clear
11:55 AM 86.0 °F 84.5 °F 55.4 °F 35% 30.06 in 10.0 mi SSW 5.8 mph - N/A   Clear
12:15 PM 87.8 °F 86.1 °F 55.4 °F 33% 30.05 in 10.0 mi SSW 8.1 mph - N/A   Clear
12:35 PM 89.6 °F 87.3 °F 53.6 °F 29% 30.04 in 10.0 mi SW 9.2 mph - N/A   Clear
12:55 PM 89.6 °F 87.3 °F 53.6 °F 29% 30.03 in 10.0 mi South 5.8 mph - N/A   Clear
1:15 PM 89.6 °F - 50.0 °F 26% 30.02 in 10.0 mi SW 8.1 mph - N/A   Clear
1:55 PM 91.4 °F - 48.2 °F 23% 30.00 in 10.0 mi NNE 4.6 mph - N/A   Clear
2:15 PM 95.0 °F - 48.2 °F 20% 29.99 in 10.0 mi NNW 8.1 mph - N/A   Clear
2:35 PM 93.2 °F - 46.4 °F 20% 29.98 in 10.0 mi NNW 4.6 mph - N/A   Clear
2:55 PM 93.2 °F - 46.4 °F 20% 29.97 in 10.0 mi Calm Calm - N/A   Clear
3:15 PM 95.0 °F - 46.4 °F 19% 29.95 in 10.0 mi NW 11.5 mph 17.3 mph N/A   Clear
3:35 PM 95.0 °F - 46.4 °F 19% 29.95 in 10.0 mi NNW 5.8 mph - N/A   Clear
3:55 PM 95.0 °F - 48.2 °F 20% 29.94 in 10.0 mi Calm Calm - N/A   Clear
4:15 PM 95.0 °F - 46.4 °F 19% 29.94 in 10.0 mi SSE 4.6 mph - N/A   Clear
4:35 PM 95.0 °F - 44.6 °F 18% 29.93 in 10.0 mi North 4.6 mph - N/A   Clear
4:55 PM 95.0 °F - 46.4 °F 19% 29.93 in 10.0 mi SW 5.8 mph - N/A   Clear
5:15 PM 93.2 °F - 44.6 °F 19% 29.94 in 10.0 mi SW 5.8 mph - N/A   Clear
5:35 PM 93.2 °F - 44.6 °F 19% 29.93 in 10.0 mi WNW 4.6 mph - N/A   Clear
5:55 PM 93.2 °F - 44.6 °F 19% 29.93 in 10.0 mi SW 5.8 mph - N/A   Clear
6:15 PM 89.6 °F - 50.0 °F 26% 29.94 in 10.0 mi South 19.6 mph 29.9 mph N/A   Clear
6:35 PM 86.0 °F - 50.0 °F 29% 29.94 in 10.0 mi South 19.6 mph 27.6 mph N/A   Clear
6:55 PM 86.0 °F - 50.0 °F 29% 29.95 in 10.0 mi South 20.7 mph 29.9 mph N/A   Clear
7:15 PM 84.2 °F - 50.0 °F 30% 29.95 in 10.0 mi South 25.3 mph 36.8 mph N/A   Clear
7:35 PM 82.4 °F - 50.0 °F 32% 29.95 in 10.0 mi South 23.0 mph 34.5 mph N/A   Clear
7:55 PM 82.4 °F - 48.2 °F 30% 29.96 in 10.0 mi South 24.2 mph 33.4 mph N/A   Clear
8:15 PM 80.6 °F - 50.0 °F 34% 29.98 in 10.0 mi South 26.5 mph 36.8 mph N/A   Clear
8:35 PM 80.6 °F - 48.2 °F 32% 30.00 in 10.0 mi South 20.7 mph 28.8 mph N/A   Scattered Clouds
8:55 PM 80.6 °F - 46.4 °F 30% 30.02 in 10.0 mi South 13.8 mph 25.3 mph N/A   Scattered Clouds
9:15 PM 82.4 °F - 46.4 °F 28% 30.05 in 10.0 mi Calm Calm - N/A   Scattered Clouds
9:35 PM 80.6 °F - 48.2 °F 32% 30.05 in 10.0 mi SSE 5.8 mph - N/A   Clear
9:55 PM 77.0 °F - 48.2 °F 36% 30.05 in 10.0 mi SSE 5.8 mph - N/A   Clear
10:15 PM 78.8 °F - 48.2 °F 34% 30.05 in 10.0 mi SSE 8.1 mph - N/A   Clear
10:35 PM 80.6 °F - 48.2 °F 32% 30.06 in 10.0 mi SSE 6.9 mph - N/A   Clear
10:55 PM 80.6 °F - 46.4 °F 30% 30.05 in 10.0 mi South 10.4 mph - N/A   Clear
11:15 PM 80.6 °F - 46.4 °F 30% 30.06 in 10.0 mi South 9.2 mph - N/A   Clear
11:35 PM 77.0 °F - 48.2 °F 36% 30.06 in 10.0 mi South 9.2 mph - N/A   Clear
11:55 PM 77.0 °F - 48.2 °F 36% 30.06 in 10.0 mi SE 11.5 mph - N/A   Clear